Year,Month,Day,Hour,Minute,Value (Times are PST for windspeed in km/hr)
2008,02,06,00,00,3.00
2008,02,06,00,01,3.00
2008,02,06,00,02,3.60
2008,02,06,00,03,0.80
2008,02,06,00,04,0.00
2008,02,06,00,05,1.70
2008,02,06,00,06,4.00
2008,02,06,00,07,2.50
2008,02,06,00,08,3.80
2008,02,06,00,09,3.60
2008,02,06,00,10,1.60
2008,02,06,00,11,5.20
2008,02,06,00,12,4.40
2008,02,06,00,13,6.60
2008,02,06,00,14,4.70
2008,02,06,00,15,7.30
2008,02,06,00,16,7.70
2008,02,06,00,17,7.10
2008,02,06,00,18,4.70
2008,02,06,00,19,1.90
2008,02,06,00,20,3.10
2008,02,06,00,21,1.00
2008,02,06,00,22,4.10
2008,02,06,00,23,6.50
2008,02,06,00,24,9.30
2008,02,06,00,25,14.10
2008,02,06,00,26,13.90
2008,02,06,00,27,10.30
2008,02,06,00,28,12.30
2008,02,06,00,29,8.40
2008,02,06,00,30,7.90
2008,02,06,00,31,6.60
2008,02,06,00,32,10.30
2008,02,06,00,33,8.80
2008,02,06,00,34,9.80
2008,02,06,00,35,12.70
2008,02,06,00,36,5.70
2008,02,06,00,37,7.50
2008,02,06,00,38,5.70
2008,02,06,00,39,3.00
2008,02,06,00,40,1.40
2008,02,06,00,41,3.00
2008,02,06,00,42,8.10
2008,02,06,00,43,12.70
2008,02,06,00,44,5.50
2008,02,06,00,45,2.50
2008,02,06,00,46,0.80
2008,02,06,00,47,3.60
2008,02,06,00,48,2.10
2008,02,06,00,49,4.20
2008,02,06,00,50,14.20
2008,02,06,00,51,5.20
2008,02,06,00,52,3.90
2008,02,06,00,53,4.10
2008,02,06,00,54,1.50
2008,02,06,00,55,1.30
2008,02,06,00,56,4.10
2008,02,06,00,57,2.00
2008,02,06,00,58,4.30
2008,02,06,00,59,3.60
2008,02,06,01,00,3.00
2008,02,06,01,01,3.10
2008,02,06,01,02,0.00
2008,02,06,01,03,0.00
2008,02,06,01,04,0.10
2008,02,06,01,05,0.40
2008,02,06,01,06,1.00
2008,02,06,01,07,4.80
2008,02,06,01,08,4.90
2008,02,06,01,09,3.40
2008,02,06,01,10,4.40
2008,02,06,01,11,0.00
2008,02,06,01,12,0.70
2008,02,06,01,13,1.40
2008,02,06,01,14,2.30
2008,02,06,01,15,8.60
2008,02,06,01,16,3.30
2008,02,06,01,17,1.50
2008,02,06,01,18,2.50
2008,02,06,01,19,2.40
2008,02,06,01,20,1.50
2008,02,06,01,21,0.40
2008,02,06,01,22,1.40
2008,02,06,01,23,0.20
2008,02,06,01,24,0.90
2008,02,06,01,25,2.50
2008,02,06,01,26,0.50
2008,02,06,01,27,3.70
2008,02,06,01,28,3.70
2008,02,06,01,29,3.70
2008,02,06,01,30,8.30
2008,02,06,01,31,4.70
2008,02,06,01,32,4.00
2008,02,06,01,33,5.70
2008,02,06,01,34,6.80
2008,02,06,01,35,7.10
2008,02,06,01,36,5.40
2008,02,06,01,37,6.40
2008,02,06,01,38,3.80
2008,02,06,01,39,4.00
2008,02,06,01,40,2.80
2008,02,06,01,41,6.50
2008,02,06,01,42,6.40
2008,02,06,01,43,4.10
2008,02,06,01,44,2.20
2008,02,06,01,45,1.40
2008,02,06,01,46,0.20
2008,02,06,01,47,2.50
2008,02,06,01,48,3.30
2008,02,06,01,49,2.00
2008,02,06,01,50,6.70
2008,02,06,01,51,2.50
2008,02,06,01,52,2.30
2008,02,06,01,53,0.90
2008,02,06,01,54,0.30
2008,02,06,01,55,0.60
2008,02,06,01,56,2.30
2008,02,06,01,57,3.40
2008,02,06,01,58,0.70
2008,02,06,01,59,7.30
2008,02,06,02,00,7.80
2008,02,06,02,01,4.00
2008,02,06,02,02,4.80
2008,02,06,02,03,2.60
2008,02,06,02,04,0.60
2008,02,06,02,05,1.80
2008,02,06,02,06,2.20
2008,02,06,02,07,2.50
2008,02,06,02,08,2.10
2008,02,06,02,09,0.30
2008,02,06,02,10,3.80
2008,02,06,02,11,4.20
2008,02,06,02,12,2.60
2008,02,06,02,13,6.80
2008,02,06,02,14,8.90
2008,02,06,02,15,9.90
2008,02,06,02,16,5.00
2008,02,06,02,17,2.90
2008,02,06,02,18,2.60
2008,02,06,02,19,7.40
2008,02,06,02,20,9.30
2008,02,06,02,21,7.20
2008,02,06,02,22,13.00
2008,02,06,02,23,11.40
2008,02,06,02,24,9.20
2008,02,06,02,25,9.40
2008,02,06,02,26,7.40
2008,02,06,02,27,9.10
2008,02,06,02,28,8.20
2008,02,06,02,29,6.20
2008,02,06,02,30,8.30
2008,02,06,02,31,5.40
2008,02,06,02,32,4.30
2008,02,06,02,33,5.80
2008,02,06,02,34,9.20
2008,02,06,02,35,5.60
2008,02,06,02,36,10.10
2008,02,06,02,37,1.80
2008,02,06,02,38,6.90
2008,02,06,02,39,8.50
2008,02,06,02,40,6.80
2008,02,06,02,41,6.00
2008,02,06,02,42,6.00
2008,02,06,02,43,7.00
2008,02,06,02,44,8.90
2008,02,06,02,45,8.90
2008,02,06,02,46,4.30
2008,02,06,02,47,7.10
2008,02,06,02,48,4.70
2008,02,06,02,49,6.40
2008,02,06,02,50,7.80
2008,02,06,02,51,7.40
2008,02,06,02,52,3.40
2008,02,06,02,53,7.40
2008,02,06,02,54,13.00
2008,02,06,02,55,9.50
2008,02,06,02,56,10.80
2008,02,06,02,57,10.50
2008,02,06,02,58,11.60
2008,02,06,02,59,11.50
2008,02,06,03,00,13.80
2008,02,06,03,01,16.30
2008,02,06,03,02,6.40
2008,02,06,03,03,8.50
2008,02,06,03,04,8.40
2008,02,06,03,05,6.90
2008,02,06,03,06,4.20
2008,02,06,03,07,9.00
2008,02,06,03,08,8.70
2008,02,06,03,09,9.70
2008,02,06,03,10,9.20
2008,02,06,03,11,10.30
2008,02,06,03,12,8.40
2008,02,06,03,13,8.20
2008,02,06,03,14,14.70
2008,02,06,03,15,8.60
2008,02,06,03,16,14.20
2008,02,06,03,17,18.70
2008,02,06,03,18,15.00
2008,02,06,03,19,11.00
2008,02,06,03,20,9.00
2008,02,06,03,21,7.20
2008,02,06,03,22,13.00
2008,02,06,03,23,15.30
2008,02,06,03,24,9.00
2008,02,06,03,25,12.50
2008,02,06,03,26,12.60
2008,02,06,03,27,12.80
2008,02,06,03,28,15.00
2008,02,06,03,29,13.20
2008,02,06,03,30,8.90
2008,02,06,03,31,16.30
2008,02,06,03,32,16.20
2008,02,06,03,33,19.70
2008,02,06,03,34,12.90
2008,02,06,03,35,8.10
2008,02,06,03,36,9.30
2008,02,06,03,37,14.70
2008,02,06,03,38,11.70
2008,02,06,03,39,14.00
2008,02,06,03,40,8.50
2008,02,06,03,41,9.70
2008,02,06,03,42,11.20
2008,02,06,03,43,12.60
2008,02,06,03,44,12.10
2008,02,06,03,45,5.70
2008,02,06,03,46,8.60
2008,02,06,03,47,11.10
2008,02,06,03,48,4.60
2008,02,06,03,49,6.40
2008,02,06,03,50,11.90
2008,02,06,03,51,13.00
2008,02,06,03,52,9.50
2008,02,06,03,53,6.60
2008,02,06,03,54,9.70
2008,02,06,03,55,7.50
2008,02,06,03,56,6.30
2008,02,06,03,57,5.30
2008,02,06,03,58,4.60
2008,02,06,03,59,5.30
2008,02,06,04,00,3.70
2008,02,06,04,01,4.10
2008,02,06,04,02,7.60
2008,02,06,04,03,11.90
2008,02,06,04,04,11.30
2008,02,06,04,05,8.00
2008,02,06,04,06,3.10
2008,02,06,04,07,0.30
2008,02,06,04,08,0.00
2008,02,06,04,09,0.40
2008,02,06,04,10,0.00
2008,02,06,04,11,3.40
2008,02,06,04,12,1.30
2008,02,06,04,13,2.20
2008,02,06,04,14,0.00
2008,02,06,04,15,0.80
2008,02,06,04,16,2.50
2008,02,06,04,17,0.50
2008,02,06,04,18,0.80
2008,02,06,04,19,0.90
2008,02,06,04,20,0.00
2008,02,06,04,21,1.70
2008,02,06,04,22,1.90
2008,02,06,04,23,1.00
2008,02,06,04,24,2.00
2008,02,06,04,25,0.60
2008,02,06,04,26,0.00
2008,02,06,04,27,1.20
2008,02,06,04,28,3.00
2008,02,06,04,29,0.90
2008,02,06,04,30,0.60
2008,02,06,04,31,0.00
2008,02,06,04,32,0.00
2008,02,06,04,33,0.10
2008,02,06,04,34,3.50
2008,02,06,04,35,2.60
2008,02,06,04,36,2.80
2008,02,06,04,37,2.50
2008,02,06,04,38,2.00
2008,02,06,04,39,0.30
2008,02,06,04,40,0.00
2008,02,06,04,41,1.20
2008,02,06,04,42,0.20
2008,02,06,04,43,3.70
2008,02,06,04,44,1.90
2008,02,06,04,45,3.60
2008,02,06,04,46,2.60
2008,02,06,04,47,0.40
2008,02,06,04,48,0.50
2008,02,06,04,49,3.30
2008,02,06,04,50,1.40
2008,02,06,04,51,0.90
2008,02,06,04,52,0.80
2008,02,06,04,53,2.60
2008,02,06,04,54,0.80
2008,02,06,04,55,0.00
2008,02,06,04,56,1.40
2008,02,06,04,57,2.00
2008,02,06,04,58,1.40
2008,02,06,04,59,0.20
2008,02,06,05,00,1.80
2008,02,06,05,01,1.20
2008,02,06,05,02,0.50
2008,02,06,05,03,2.00
2008,02,06,05,04,0.20
2008,02,06,05,05,2.50
2008,02,06,05,06,2.30
2008,02,06,05,07,0.70
2008,02,06,05,08,0.00
2008,02,06,05,09,4.90
2008,02,06,05,10,5.70
2008,02,06,05,11,6.20
2008,02,06,05,12,5.60
2008,02,06,05,13,4.10
2008,02,06,05,14,2.90
2008,02,06,05,15,4.10
2008,02,06,05,16,5.10
2008,02,06,05,17,3.80
2008,02,06,05,18,1.10
2008,02,06,05,19,3.20
2008,02,06,05,20,1.40
2008,02,06,05,21,2.10
2008,02,06,05,22,3.60
2008,02,06,05,23,3.10
2008,02,06,05,24,1.50
2008,02,06,05,25,0.30
2008,02,06,05,26,0.10
2008,02,06,05,27,2.10
2008,02,06,05,28,0.90
2008,02,06,05,29,3.60
2008,02,06,05,30,5.60
2008,02,06,05,31,6.00
2008,02,06,05,32,1.80
2008,02,06,05,33,0.70
2008,02,06,05,34,2.20
2008,02,06,05,35,3.60
2008,02,06,05,36,3.20
2008,02,06,05,37,0.30
2008,02,06,05,38,1.90
2008,02,06,05,39,0.60
2008,02,06,05,40,0.50
2008,02,06,05,41,0.00
2008,02,06,05,42,0.10
2008,02,06,05,43,0.30
2008,02,06,05,44,0.30
2008,02,06,05,45,0.00
2008,02,06,05,46,1.00
2008,02,06,05,47,0.60
2008,02,06,05,48,1.60
2008,02,06,05,49,2.90
2008,02,06,05,50,2.20
2008,02,06,05,51,0.70
2008,02,06,05,52,3.30
2008,02,06,05,53,0.10
2008,02,06,05,54,0.10
2008,02,06,05,55,2.40
2008,02,06,05,56,3.90
2008,02,06,05,57,4.20
2008,02,06,05,58,3.80
2008,02,06,05,59,4.60
2008,02,06,06,00,4.50
2008,02,06,06,01,2.50
2008,02,06,06,02,1.90
2008,02,06,06,03,0.00
2008,02,06,06,04,0.00
2008,02,06,06,05,0.20
2008,02,06,06,06,0.10
2008,02,06,06,07,1.00
2008,02,06,06,08,1.60
2008,02,06,06,09,4.70
2008,02,06,06,10,2.50
2008,02,06,06,11,1.30
2008,02,06,06,12,0.30
2008,02,06,06,13,2.90
2008,02,06,06,14,2.00
2008,02,06,06,15,4.50
2008,02,06,06,16,3.40
2008,02,06,06,17,0.20
2008,02,06,06,18,1.50
2008,02,06,06,19,0.00
2008,02,06,06,20,1.80
2008,02,06,06,21,3.80
2008,02,06,06,22,1.40
2008,02,06,06,23,0.20
2008,02,06,06,24,2.00
2008,02,06,06,25,0.10
2008,02,06,06,26,0.70
2008,02,06,06,27,3.80
2008,02,06,06,28,2.50
2008,02,06,06,29,1.40
2008,02,06,06,30,5.60
2008,02,06,06,31,4.50
2008,02,06,06,32,5.10
2008,02,06,06,33,2.50
2008,02,06,06,34,1.70
2008,02,06,06,35,4.60
2008,02,06,06,36,4.30
2008,02,06,06,37,6.10
2008,02,06,06,38,7.70
2008,02,06,06,39,1.80
2008,02,06,06,40,2.60
2008,02,06,06,41,4.20
2008,02,06,06,42,7.50
2008,02,06,06,43,6.90
2008,02,06,06,44,3.20
2008,02,06,06,45,1.00
2008,02,06,06,46,2.50
2008,02,06,06,47,3.00
2008,02,06,06,48,0.50
2008,02,06,06,49,1.60
2008,02,06,06,50,3.00
2008,02,06,06,51,3.10
2008,02,06,06,52,4.10
2008,02,06,06,53,3.00
2008,02,06,06,54,1.90
2008,02,06,06,55,1.00
2008,02,06,06,56,0.80
2008,02,06,06,57,6.00
2008,02,06,06,58,3.90
2008,02,06,06,59,2.10
2008,02,06,07,00,4.30
2008,02,06,07,01,2.20
2008,02,06,07,02,4.00
2008,02,06,07,03,5.80
2008,02,06,07,04,4.70
2008,02,06,07,05,3.10
2008,02,06,07,06,5.20
2008,02,06,07,07,6.80
2008,02,06,07,08,6.00
2008,02,06,07,09,7.10
2008,02,06,07,10,2.00
2008,02,06,07,11,0.90
2008,02,06,07,12,2.60
2008,02,06,07,13,2.60
2008,02,06,07,14,0.50
2008,02,06,07,15,0.00
2008,02,06,07,16,0.60
2008,02,06,07,17,1.00
2008,02,06,07,18,0.50
2008,02,06,07,19,1.40
2008,02,06,07,20,0.10
2008,02,06,07,21,1.10
2008,02,06,07,22,0.80
2008,02,06,07,23,0.10
2008,02,06,07,24,0.00
2008,02,06,07,25,0.00
2008,02,06,07,26,0.00
2008,02,06,07,27,0.00
2008,02,06,07,28,0.00
2008,02,06,07,29,0.30
2008,02,06,07,30,8.10
2008,02,06,07,31,2.20
2008,02,06,07,32,1.20
2008,02,06,07,33,5.80
2008,02,06,07,34,6.60
2008,02,06,07,35,4.20
2008,02,06,07,36,3.20
2008,02,06,07,37,0.40
2008,02,06,07,38,2.50
2008,02,06,07,39,4.70
2008,02,06,07,40,2.60
2008,02,06,07,41,4.70
2008,02,06,07,42,5.00
2008,02,06,07,43,4.40
2008,02,06,07,44,3.40
2008,02,06,07,45,4.90
2008,02,06,07,46,4.70
2008,02,06,07,47,6.00
2008,02,06,07,48,3.10
2008,02,06,07,49,2.00
2008,02,06,07,50,4.00
2008,02,06,07,51,6.40
2008,02,06,07,52,6.40
2008,02,06,07,53,6.40
2008,02,06,07,54,4.10
2008,02,06,07,55,5.60
2008,02,06,07,56,4.90
2008,02,06,07,57,4.80
2008,02,06,07,58,2.50
2008,02,06,07,59,0.00
2008,02,06,08,00,0.00
2008,02,06,08,01,0.10
2008,02,06,08,02,0.00
2008,02,06,08,03,0.20
2008,02,06,08,04,0.20
2008,02,06,08,05,1.20
2008,02,06,08,06,3.00
2008,02,06,08,07,4.00
2008,02,06,08,08,2.40
2008,02,06,08,09,2.50
2008,02,06,08,10,4.70
2008,02,06,08,11,5.80
2008,02,06,08,12,4.70
2008,02,06,08,13,3.80
2008,02,06,08,14,7.30
2008,02,06,08,15,6.70
2008,02,06,08,16,6.00
2008,02,06,08,17,3.40
2008,02,06,08,18,2.90
2008,02,06,08,19,6.50
2008,02,06,08,20,3.10
2008,02,06,08,21,1.40
2008,02,06,08,22,6.70
2008,02,06,08,23,5.40
2008,02,06,08,24,5.30
2008,02,06,08,25,5.20
2008,02,06,08,26,6.00
2008,02,06,08,27,7.50
2008,02,06,08,28,7.30
2008,02,06,08,29,8.10
2008,02,06,08,30,5.30
2008,02,06,08,31,3.30
2008,02,06,08,32,0.70
2008,02,06,08,33,0.70
2008,02,06,08,34,4.80
2008,02,06,08,35,5.90
2008,02,06,08,36,7.70
2008,02,06,08,37,6.70
2008,02,06,08,38,6.00
2008,02,06,08,39,5.80
2008,02,06,08,40,2.40
2008,02,06,08,41,2.30
2008,02,06,08,42,3.70
2008,02,06,08,43,0.90
2008,02,06,08,44,1.40
2008,02,06,08,45,1.90
2008,02,06,08,46,5.50
2008,02,06,08,47,6.40
2008,02,06,08,48,4.00
2008,02,06,08,49,4.00
2008,02,06,08,50,2.50
2008,02,06,08,51,1.30
2008,02,06,08,52,0.60
2008,02,06,08,53,1.30
2008,02,06,08,54,4.00
2008,02,06,08,55,2.80
2008,02,06,08,56,4.70
2008,02,06,08,57,1.10
2008,02,06,08,58,0.80
2008,02,06,08,59,4.80
2008,02,06,09,00,4.10
2008,02,06,09,01,4.60
2008,02,06,09,02,3.80
2008,02,06,09,03,3.00
2008,02,06,09,04,3.30
2008,02,06,09,05,4.70
2008,02,06,09,06,3.70
2008,02,06,09,07,4.50
2008,02,06,09,08,4.50
2008,02,06,09,09,3.90
2008,02,06,09,10,3.00
2008,02,06,09,11,2.50
2008,02,06,09,12,2.40
2008,02,06,09,13,3.90
2008,02,06,09,14,3.10
2008,02,06,09,15,3.20
2008,02,06,09,16,3.10
2008,02,06,09,17,2.70
2008,02,06,09,18,1.20
2008,02,06,09,19,1.40
2008,02,06,09,20,0.90
2008,02,06,09,21,1.60
2008,02,06,09,22,1.40
2008,02,06,09,23,2.90
2008,02,06,09,24,2.50
2008,02,06,09,25,3.00
2008,02,06,09,26,2.00
2008,02,06,09,27,2.30
2008,02,06,09,28,2.10
2008,02,06,09,29,3.70
2008,02,06,09,30,3.60
2008,02,06,09,31,2.70
2008,02,06,09,32,2.70
2008,02,06,09,33,2.90
2008,02,06,09,34,2.50
2008,02,06,09,35,3.10
2008,02,06,09,36,1.80
2008,02,06,09,37,4.70
2008,02,06,09,38,4.50
2008,02,06,09,39,3.80
2008,02,06,09,40,3.70
2008,02,06,09,41,2.80
2008,02,06,09,42,2.00
2008,02,06,09,43,0.80
2008,02,06,09,44,2.60
2008,02,06,09,45,3.80
2008,02,06,09,46,3.40
2008,02,06,09,47,3.50
2008,02,06,09,48,4.00
2008,02,06,09,49,5.60
2008,02,06,09,50,3.20
2008,02,06,09,51,3.50
2008,02,06,09,52,1.80
2008,02,06,09,53,3.40
2008,02,06,09,54,1.40
2008,02,06,09,55,0.90
2008,02,06,09,56,0.50
2008,02,06,09,57,0.70
2008,02,06,09,58,4.90
2008,02,06,09,59,2.80
2008,02,06,10,00,2.30
2008,02,06,10,01,4.10
2008,02,06,10,02,2.60
2008,02,06,10,03,3.20
2008,02,06,10,04,3.70
2008,02,06,10,05,3.20
2008,02,06,10,06,2.60
2008,02,06,10,07,2.90
2008,02,06,10,08,1.10
2008,02,06,10,09,1.00
2008,02,06,10,10,1.30
2008,02,06,10,11,1.50
2008,02,06,10,12,2.50
2008,02,06,10,13,1.40
2008,02,06,10,14,2.70
2008,02,06,10,15,2.50
2008,02,06,10,16,1.60
2008,02,06,10,17,1.80
2008,02,06,10,18,2.00
2008,02,06,10,19,1.30
2008,02,06,10,20,3.70
2008,02,06,10,21,3.70
2008,02,06,10,22,5.10
2008,02,06,10,23,3.80
2008,02,06,10,24,4.40
2008,02,06,10,25,3.00
2008,02,06,10,26,1.60
2008,02,06,10,27,1.50
2008,02,06,10,28,0.30
2008,02,06,10,29,1.40
2008,02,06,10,30,1.30
2008,02,06,10,31,0.60
2008,02,06,10,32,2.20
2008,02,06,10,33,0.70
2008,02,06,10,34,0.20
2008,02,06,10,35,0.20
2008,02,06,10,36,0.20
2008,02,06,10,37,0.70
2008,02,06,10,38,0.80
2008,02,06,10,39,2.00
2008,02,06,10,40,2.40
2008,02,06,10,41,1.70
2008,02,06,10,42,3.60
2008,02,06,10,43,0.60
2008,02,06,10,44,1.40
2008,02,06,10,45,2.10
2008,02,06,10,46,4.70
2008,02,06,10,47,4.90
2008,02,06,10,48,3.80
2008,02,06,10,49,4.30
2008,02,06,10,50,4.40
2008,02,06,10,51,5.00
2008,02,06,10,52,3.10
2008,02,06,10,53,1.90
2008,02,06,10,54,3.60
2008,02,06,10,55,4.40
2008,02,06,10,56,4.40
2008,02,06,10,57,4.10
2008,02,06,10,58,5.80
2008,02,06,10,59,5.60
2008,02,06,11,00,4.80
2008,02,06,11,01,5.30
2008,02,06,11,02,3.70
2008,02,06,11,03,5.00
2008,02,06,11,04,6.00
2008,02,06,11,05,5.20
2008,02,06,11,06,5.60
2008,02,06,11,07,4.50
2008,02,06,11,08,3.90
2008,02,06,11,09,4.10
2008,02,06,11,10,4.40
2008,02,06,11,11,9.70
2008,02,06,11,12,5.80
2008,02,06,11,13,0.70
2008,02,06,11,14,4.60
2008,02,06,11,15,12.60
2008,02,06,11,16,13.20
2008,02,06,11,17,7.20
2008,02,06,11,18,6.80
2008,02,06,11,19,8.00
2008,02,06,11,20,6.70
2008,02,06,11,21,9.30
2008,02,06,11,22,8.90
2008,02,06,11,23,10.30
2008,02,06,11,24,11.50
2008,02,06,11,25,11.40
2008,02,06,11,26,9.00
2008,02,06,11,27,10.20
2008,02,06,11,28,8.20
2008,02,06,11,29,8.70
2008,02,06,11,30,7.10
2008,02,06,11,31,5.80
2008,02,06,11,32,6.90
2008,02,06,11,33,5.60
2008,02,06,11,34,5.30
2008,02,06,11,35,3.00
2008,02,06,11,36,1.30
2008,02,06,11,37,1.00
2008,02,06,11,38,2.70
2008,02,06,11,39,2.60
2008,02,06,11,40,1.50
2008,02,06,11,41,0.00
2008,02,06,11,42,0.10
2008,02,06,11,43,0.00
2008,02,06,11,44,0.00
2008,02,06,11,45,0.00
2008,02,06,11,46,0.50
2008,02,06,11,47,0.90
2008,02,06,11,48,0.00
2008,02,06,11,49,0.00
2008,02,06,11,50,0.00
2008,02,06,11,51,0.00
2008,02,06,11,52,0.00
2008,02,06,11,53,0.00
2008,02,06,11,54,0.00
2008,02,06,11,55,0.00
2008,02,06,11,56,0.00
2008,02,06,11,57,0.00
2008,02,06,11,58,0.00
2008,02,06,11,59,0.00
2008,02,06,12,00,0.00
2008,02,06,12,01,0.00
2008,02,06,12,02,0.00
2008,02,06,12,03,0.00
2008,02,06,12,04,1.40
2008,02,06,12,05,1.80
2008,02,06,12,06,3.50
2008,02,06,12,07,4.20
2008,02,06,12,08,3.70
2008,02,06,12,09,3.50
2008,02,06,12,10,5.80
2008,02,06,12,11,5.80
2008,02,06,12,12,4.70
2008,02,06,12,13,4.10
2008,02,06,12,14,3.10
2008,02,06,12,15,1.10
2008,02,06,12,16,0.60
2008,02,06,12,17,0.50
2008,02,06,12,18,0.60
2008,02,06,12,19,0.00
2008,02,06,12,20,0.00
2008,02,06,12,21,0.00
2008,02,06,12,22,0.30
2008,02,06,12,23,0.20
2008,02,06,12,24,2.00
2008,02,06,12,25,0.60
2008,02,06,12,26,1.60
2008,02,06,12,27,1.20
2008,02,06,12,28,2.30
2008,02,06,12,29,1.30
2008,02,06,12,30,0.20
2008,02,06,12,31,0.20
2008,02,06,12,32,0.40
2008,02,06,12,33,0.00
2008,02,06,12,34,1.20
2008,02,06,12,35,2.70
2008,02,06,12,36,3.20
2008,02,06,12,37,1.50
2008,02,06,12,38,1.00
2008,02,06,12,39,2.20
2008,02,06,12,40,1.10
2008,02,06,12,41,2.50
2008,02,06,12,42,3.30
2008,02,06,12,43,2.90
2008,02,06,12,44,0.90
2008,02,06,12,45,0.30
2008,02,06,12,46,2.40
2008,02,06,12,47,1.80
2008,02,06,12,48,2.10
2008,02,06,12,49,3.00
2008,02,06,12,50,2.30
2008,02,06,12,51,2.50
2008,02,06,12,52,4.80
2008,02,06,12,53,5.00
2008,02,06,12,54,4.20
2008,02,06,12,55,3.60
2008,02,06,12,56,4.40
2008,02,06,12,57,3.50
2008,02,06,12,58,1.80
2008,02,06,12,59,2.80
2008,02,06,13,00,4.70
2008,02,06,13,01,4.70
2008,02,06,13,02,2.00
2008,02,06,13,03,4.60
2008,02,06,13,04,3.10
2008,02,06,13,05,3.20
2008,02,06,13,06,2.00
2008,02,06,13,07,2.60
2008,02,06,13,08,2.80
2008,02,06,13,09,3.80
2008,02,06,13,10,3.50
2008,02,06,13,11,2.70
2008,02,06,13,12,3.00
2008,02,06,13,13,2.30
2008,02,06,13,14,0.70
2008,02,06,13,15,1.70
2008,02,06,13,16,0.60
2008,02,06,13,17,1.70
2008,02,06,13,18,3.70
2008,02,06,13,19,3.50
2008,02,06,13,20,3.00
2008,02,06,13,21,4.90
2008,02,06,13,22,5.40
2008,02,06,13,23,3.50
2008,02,06,13,24,3.60
2008,02,06,13,25,3.50
2008,02,06,13,26,4.00
2008,02,06,13,27,2.80
2008,02,06,13,28,3.50
2008,02,06,13,29,3.60
2008,02,06,13,30,2.10
2008,02,06,13,31,3.00
2008,02,06,13,32,3.50
2008,02,06,13,33,3.10
2008,02,06,13,34,2.50
2008,02,06,13,35,2.90
2008,02,06,13,36,2.50
2008,02,06,13,37,4.10
2008,02,06,13,38,5.20
2008,02,06,13,39,5.80
2008,02,06,13,40,4.10
2008,02,06,13,41,8.50
2008,02,06,13,42,7.50
2008,02,06,13,43,4.70
2008,02,06,13,44,5.60
2008,02,06,13,45,4.50
2008,02,06,13,46,6.40
2008,02,06,13,47,7.10
2008,02,06,13,48,7.90
2008,02,06,13,49,5.80
2008,02,06,13,50,5.80
2008,02,06,13,51,8.40
2008,02,06,13,52,5.90
2008,02,06,13,53,4.70
2008,02,06,13,54,10.20
2008,02,06,13,55,9.10
2008,02,06,13,56,4.90
2008,02,06,13,57,7.00
2008,02,06,13,58,8.50
2008,02,06,13,59,6.80
2008,02,06,14,00,6.90
2008,02,06,14,01,4.50
2008,02,06,14,02,5.30
2008,02,06,14,03,5.50
2008,02,06,14,04,5.40
2008,02,06,14,05,5.70
2008,02,06,14,06,4.70
2008,02,06,14,07,7.40
2008,02,06,14,08,3.50
2008,02,06,14,09,3.50
2008,02,06,14,10,4.10
2008,02,06,14,11,5.90
2008,02,06,14,12,4.80
2008,02,06,14,13,3.50
2008,02,06,14,14,3.00
2008,02,06,14,15,5.40
2008,02,06,14,16,5.60
2008,02,06,14,17,4.20
2008,02,06,14,18,3.40
2008,02,06,14,19,1.40
2008,02,06,14,20,3.90
2008,02,06,14,21,4.10
2008,02,06,14,22,5.50
2008,02,06,14,23,5.00
2008,02,06,14,24,2.60
2008,02,06,14,25,3.00
2008,02,06,14,26,3.90
2008,02,06,14,27,4.90
2008,02,06,14,28,9.80
2008,02,06,14,29,9.80
2008,02,06,14,30,5.80
2008,02,06,14,31,8.60
2008,02,06,14,32,12.70
2008,02,06,14,33,11.00
2008,02,06,14,34,12.50
2008,02,06,14,35,7.50
2008,02,06,14,36,4.40
2008,02,06,14,37,8.90
2008,02,06,14,38,8.30
2008,02,06,14,39,5.60
2008,02,06,14,40,12.50
2008,02,06,14,41,10.10
2008,02,06,14,42,9.20
2008,02,06,14,43,6.40
2008,02,06,14,44,11.00
2008,02,06,14,45,9.30
2008,02,06,14,46,8.60
2008,02,06,14,47,9.30
2008,02,06,14,48,10.00
2008,02,06,14,49,10.90
2008,02,06,14,50,9.80
2008,02,06,14,51,2.40
2008,02,06,14,52,3.30
2008,02,06,14,53,10.80
2008,02,06,14,54,12.60
2008,02,06,14,55,7.50
2008,02,06,14,56,11.40
2008,02,06,14,57,9.30
2008,02,06,14,58,12.70
2008,02,06,14,59,11.70
2008,02,06,15,00,11.70
2008,02,06,15,01,13.60
2008,02,06,15,02,8.80
2008,02,06,15,03,8.60
2008,02,06,15,04,6.70
2008,02,06,15,05,6.70
2008,02,06,15,06,7.60
2008,02,06,15,07,10.70
2008,02,06,15,08,13.60
2008,02,06,15,09,14.30
2008,02,06,15,10,9.20
2008,02,06,15,11,12.60
2008,02,06,15,12,12.30
2008,02,06,15,13,7.90
2008,02,06,15,14,6.00
2008,02,06,15,15,13.50
2008,02,06,15,16,6.60
2008,02,06,15,17,6.00
2008,02,06,15,18,9.10
2008,02,06,15,19,9.10
2008,02,06,15,20,10.40
2008,02,06,15,21,10.90
2008,02,06,15,22,15.20
2008,02,06,15,23,13.90
2008,02,06,15,24,8.10
2008,02,06,15,25,7.40
2008,02,06,15,26,7.50
2008,02,06,15,27,9.50
2008,02,06,15,28,8.50
2008,02,06,15,29,5.30
2008,02,06,15,30,7.60
2008,02,06,15,31,5.70
2008,02,06,15,32,4.60
2008,02,06,15,33,7.20
2008,02,06,15,34,4.50
2008,02,06,15,35,8.50
2008,02,06,15,36,5.50
2008,02,06,15,37,4.40
2008,02,06,15,38,5.40
2008,02,06,15,39,4.20
2008,02,06,15,40,10.40
2008,02,06,15,41,10.80
2008,02,06,15,42,6.00
2008,02,06,15,43,6.90
2008,02,06,15,44,6.70
2008,02,06,15,45,8.50
2008,02,06,15,46,6.10
2008,02,06,15,47,3.40
2008,02,06,15,48,3.90
2008,02,06,15,49,5.20
2008,02,06,15,50,7.30
2008,02,06,15,51,9.70
2008,02,06,15,52,12.00
2008,02,06,15,53,5.60
2008,02,06,15,54,6.20
2008,02,06,15,55,9.00
2008,02,06,15,56,7.00
2008,02,06,15,57,6.10
2008,02,06,15,58,4.90
2008,02,06,15,59,6.30
2008,02,06,16,00,6.30
2008,02,06,16,01,11.00
2008,02,06,16,02,7.40
2008,02,06,16,03,4.40
2008,02,06,16,04,9.30
2008,02,06,16,05,12.30
2008,02,06,16,06,9.60
2008,02,06,16,07,7.00
2008,02,06,16,08,12.20
2008,02,06,16,09,8.50
2008,02,06,16,10,5.50
2008,02,06,16,11,7.30
2008,02,06,16,12,14.60
2008,02,06,16,13,8.90
2008,02,06,16,14,10.80
2008,02,06,16,15,12.00
2008,02,06,16,16,14.30
2008,02,06,16,17,17.20
2008,02,06,16,18,7.60
2008,02,06,16,19,9.80
2008,02,06,16,20,11.60
2008,02,06,16,21,9.50
2008,02,06,16,22,7.10
2008,02,06,16,23,7.00
2008,02,06,16,24,7.10
2008,02,06,16,25,8.20
2008,02,06,16,26,13.40
2008,02,06,16,27,16.30
2008,02,06,16,28,10.60
2008,02,06,16,29,11.80
2008,02,06,16,30,12.50
2008,02,06,16,31,12.10
2008,02,06,16,32,14.80
2008,02,06,16,33,8.20
2008,02,06,16,34,11.30
2008,02,06,16,35,7.10
2008,02,06,16,36,8.60
2008,02,06,16,37,12.30
2008,02,06,16,38,17.10
2008,02,06,16,39,14.40
2008,02,06,16,40,21.20
2008,02,06,16,41,15.60
2008,02,06,16,42,10.10
2008,02,06,16,43,19.90
2008,02,06,16,44,15.00
2008,02,06,16,45,8.30
2008,02,06,16,46,10.10
2008,02,06,16,47,14.60
2008,02,06,16,48,11.50
2008,02,06,16,49,13.70
2008,02,06,16,50,15.00
2008,02,06,16,51,16.30
2008,02,06,16,52,11.50
2008,02,06,16,53,11.30
2008,02,06,16,54,16.20
2008,02,06,16,55,14.50
2008,02,06,16,56,10.90
2008,02,06,16,57,9.10
2008,02,06,16,58,15.20
2008,02,06,16,59,13.20
2008,02,06,17,00,9.30
2008,02,06,17,01,8.60
2008,02,06,17,02,18.70
2008,02,06,17,03,13.80
2008,02,06,17,04,9.40
2008,02,06,17,05,16.60
2008,02,06,17,06,7.50
2008,02,06,17,07,7.30
2008,02,06,17,08,8.70
2008,02,06,17,09,11.70
2008,02,06,17,10,6.90
2008,02,06,17,11,12.70
2008,02,06,17,12,8.50
2008,02,06,17,13,8.10
2008,02,06,17,14,8.30
2008,02,06,17,15,8.40
2008,02,06,17,16,7.90
2008,02,06,17,17,11.90
2008,02,06,17,18,15.20
2008,02,06,17,19,9.30
2008,02,06,17,20,12.70
2008,02,06,17,21,18.90
2008,02,06,17,22,13.80
2008,02,06,17,23,9.70
2008,02,06,17,24,17.00
2008,02,06,17,25,19.70
2008,02,06,17,26,15.30
2008,02,06,17,27,15.40
2008,02,06,17,28,15.80
2008,02,06,17,29,14.10
2008,02,06,17,30,22.00
2008,02,06,17,31,10.20
2008,02,06,17,32,11.50
2008,02,06,17,33,21.30
2008,02,06,17,34,11.90
2008,02,06,17,35,15.40
2008,02,06,17,36,14.50
2008,02,06,17,37,20.70
2008,02,06,17,38,24.90
2008,02,06,17,39,16.30
2008,02,06,17,40,15.70
2008,02,06,17,41,13.50
2008,02,06,17,42,15.10
2008,02,06,17,43,14.50
2008,02,06,17,44,9.00
2008,02,06,17,45,13.30
2008,02,06,17,46,9.20
2008,02,06,17,47,11.10
2008,02,06,17,48,15.40
2008,02,06,17,49,10.60
2008,02,06,17,50,16.50
2008,02,06,17,51,13.40
2008,02,06,17,52,13.70
2008,02,06,17,53,15.20
2008,02,06,17,54,14.10
2008,02,06,17,55,17.90
2008,02,06,17,56,17.30
2008,02,06,17,57,9.00
2008,02,06,17,58,11.30
2008,02,06,17,59,15.40